Location: ?ejeti?ky
(50.4060°N, 14.9016°E)
Time: 11:12:52
(UTC+00:00)

STARLINK-1282 - Pass Details

Date: 08 October 2020
Orbit: 549 x 550 km, 53.0° (Epoch: 21 October)

Event Time Altitude Azimuth Distance (km) Brightness Sun altitude
Exits shadow 02:09:54 27° 101° (E) 1,069 5.5 -28.9°
Drops below altitude 10° 02:12:15 10° 77° (ENE) 1,826 7.2 -28.6°
Sets 02:14:36 0° 69° (ENE) 2,722 8.4 -28.3°
